CZ-6A DEB, 54331

Orbit data source: Space-Track

CZ-6A DEB, 54331 is space debris in SSO originally from a launch on Fri, 11 Nov 2022 UTC launched from the Taiyaun Space Center, China (TSC). Debris objects in space refer to the collection of defunct objects orbiting the Earth. Examples of debris include non-operational satellites, rocket bodies, and fragments generated from explosions, collisions, or faulty payload assembly.

Loading next visibility...
Identifier
54331, 2022-151CA
Orbit
SSO
Country
Flag of CNCN / PRC
Related business
Manufacturer
SAST
Mission
Spacecraft
Bus & Motor
Unknown
Mass
Unknown
Launch date (UTC)
2022-11-11 (4 years ago)
Launch vehicle
Unknown
Launch site
Taiyaun Space Center, China (TSC)
Object type
Payload
Rocket body
Debris
Shape & HBR
Unknown shape, 0.1 m
Radar Cross Section
Small (<0.1 m²)

Expand to show TLE details & history
Last TLE update: 1 day ago

TLE from 1 day ago
0 CZ-6A DEB
1 54331U 22151CA  26143.85536311  .00001198  00000-0  85150-3 0  9996
2 54331  98.9050 114.7621 0121685 143.3245 217.6324 13.95931025179039
Epoch: 2026-05-23T20:31Z
TLE epoch observation values (Epoch: 2026-05-23T20:31:43.372Z)
Latitude
0.00001°
Longitude
-74.63449°
Altitude
981.42 km
Speed
7.325 km/s
True Right ascension
07h 39m 02s
True Declination
0° 00' 00"
Sunlit
Object was in daylight at epoch
Visualization orbit readout
Latitude
Unknown
Longitude
Unknown
Altitude
Unknown
Speed
Unknown
Apparent Right ascension
Unknown
Apparent Declination
Unknown
Sunlit
N/A
Visualization observer readout
Local Sidereal Time
10:15:36
Azimuth
Unknown
Elevation
Unknown
Doppler factor
Unknown
Orbital elements
Apogee altitude
993.745 km
Perigee altitude
816.493 km
Semi-major axis
7,283.256 km
Eccentricity
0.01217
Inclination
98.905°
RAAN
114.7621°
Arg. of periapsis
143.3245°
True anomaly
216.79115°
Mean anomaly
217.6324°
Eccentric anomaly
217.21077°
Mean motion
3.49184 °/min
Orbital period
103.1 mins
BSTAR
0.0008515
Loading maneuver chart data...
Computing Atmospheric mass density...
Loading historical data...
Loading historical data...
Loading historical data...
Loading historical data...
Loading historical data...
Loading historical data...
Loading historical data...

Documentation

Showing up to 5 results
|